Year,Month,Day,Hour,Minute,Value (Times are PST for temperature in C)
2013,10,22,00,00,7.60
2013,10,22,00,01,7.60
2013,10,22,00,02,7.60
2013,10,22,00,03,7.50
2013,10,22,00,04,7.50
2013,10,22,00,05,7.50
2013,10,22,00,06,7.50
2013,10,22,00,07,7.50
2013,10,22,00,08,7.50
2013,10,22,00,09,7.50
2013,10,22,00,10,7.50
2013,10,22,00,11,7.50
2013,10,22,00,12,7.50
2013,10,22,00,13,7.50
2013,10,22,00,14,7.50
2013,10,22,00,15,7.50
2013,10,22,00,16,7.40
2013,10,22,00,17,7.40
2013,10,22,00,18,7.40
2013,10,22,00,19,7.40
2013,10,22,00,20,7.40
2013,10,22,00,21,7.40
2013,10,22,00,22,7.40
2013,10,22,00,23,7.40
2013,10,22,00,24,7.30
2013,10,22,00,25,7.30
2013,10,22,00,26,7.30
2013,10,22,00,27,7.30
2013,10,22,00,28,7.30
2013,10,22,00,29,7.30
2013,10,22,00,30,7.30
2013,10,22,00,31,7.30
2013,10,22,00,32,7.30
2013,10,22,00,33,7.30
2013,10,22,00,34,7.30
2013,10,22,00,35,7.30
2013,10,22,00,36,7.30
2013,10,22,00,37,7.30
2013,10,22,00,38,7.30
2013,10,22,00,39,7.20
2013,10,22,00,40,7.20
2013,10,22,00,41,7.20
2013,10,22,00,42,7.20
2013,10,22,00,43,7.20
2013,10,22,00,44,7.20
2013,10,22,00,45,7.20
2013,10,22,00,46,7.20
2013,10,22,00,47,7.20
2013,10,22,00,48,7.20
2013,10,22,00,49,7.20
2013,10,22,00,50,7.20
2013,10,22,00,51,7.20
2013,10,22,00,52,7.20
2013,10,22,00,53,7.20
2013,10,22,00,54,7.20
2013,10,22,00,55,7.20
2013,10,22,00,56,7.20
2013,10,22,00,57,7.20
2013,10,22,00,58,7.20
2013,10,22,00,59,7.20
2013,10,22,01,00,7.20
2013,10,22,01,01,7.20
2013,10,22,01,02,7.20
2013,10,22,01,03,7.20
2013,10,22,01,04,7.20
2013,10,22,01,05,7.30
2013,10,22,01,06,7.30
2013,10,22,01,07,7.30
2013,10,22,01,08,7.30
2013,10,22,01,09,7.30
2013,10,22,01,10,7.30
2013,10,22,01,11,7.30
2013,10,22,01,12,7.30
2013,10,22,01,13,7.30
2013,10,22,01,14,7.20
2013,10,22,01,15,7.20
2013,10,22,01,16,7.20
2013,10,22,01,17,7.20
2013,10,22,01,18,7.20
2013,10,22,01,19,7.20
2013,10,22,01,20,7.20
2013,10,22,01,21,7.20
2013,10,22,01,22,7.20
2013,10,22,01,23,7.20
2013,10,22,01,24,7.20
2013,10,22,01,25,7.20
2013,10,22,01,26,7.20
2013,10,22,01,27,7.20
2013,10,22,01,28,7.20
2013,10,22,01,29,7.20
2013,10,22,01,30,7.20
2013,10,22,01,31,7.20
2013,10,22,01,32,7.20
2013,10,22,01,33,7.20
2013,10,22,01,34,7.20
2013,10,22,01,35,7.20
2013,10,22,01,36,7.20
2013,10,22,01,37,7.20
2013,10,22,01,38,7.20
2013,10,22,01,39,7.20
2013,10,22,01,40,7.30
2013,10,22,01,41,7.30
2013,10,22,01,42,7.30
2013,10,22,01,43,7.30
2013,10,22,01,44,7.30
2013,10,22,01,45,7.30
2013,10,22,01,46,7.30
2013,10,22,01,47,7.30
2013,10,22,01,48,7.30
2013,10,22,01,49,7.20
2013,10,22,01,50,7.20
2013,10,22,01,51,7.20
2013,10,22,01,52,7.20
2013,10,22,01,53,7.20
2013,10,22,01,54,7.20
2013,10,22,01,55,7.20
2013,10,22,01,56,7.20
2013,10,22,01,57,7.20
2013,10,22,01,58,7.20
2013,10,22,01,59,7.20
2013,10,22,02,00,7.20
2013,10,22,02,01,7.20
2013,10,22,02,02,7.20
2013,10,22,02,03,7.20
2013,10,22,02,04,7.20
2013,10,22,02,05,7.20
2013,10,22,02,06,7.20
2013,10,22,02,07,7.20
2013,10,22,02,08,7.20
2013,10,22,02,09,7.20
2013,10,22,02,10,7.20
2013,10,22,02,11,7.20
2013,10,22,02,12,7.20
2013,10,22,02,13,7.20
2013,10,22,02,14,7.20
2013,10,22,02,15,7.20
2013,10,22,02,16,7.20
2013,10,22,02,17,7.20
2013,10,22,02,18,7.20
2013,10,22,02,19,7.20
2013,10,22,02,20,7.20
2013,10,22,02,21,7.20
2013,10,22,02,22,7.20
2013,10,22,02,23,7.10
2013,10,22,02,24,7.10
2013,10,22,02,25,7.10
2013,10,22,02,26,7.10
2013,10,22,02,27,7.10
2013,10,22,02,28,7.10
2013,10,22,02,29,7.10
2013,10,22,02,30,7.10
2013,10,22,02,31,7.10
2013,10,22,02,32,7.10
2013,10,22,02,33,7.10
2013,10,22,02,34,7.10
2013,10,22,02,35,7.10
2013,10,22,02,36,7.10
2013,10,22,02,37,7.10
2013,10,22,02,38,7.00
2013,10,22,02,39,7.00
2013,10,22,02,40,7.00
2013,10,22,02,41,7.00
2013,10,22,02,42,7.00
2013,10,22,02,43,7.00
2013,10,22,02,44,7.00
2013,10,22,02,45,7.00
2013,10,22,02,46,7.00
2013,10,22,02,47,7.00
2013,10,22,02,48,7.00
2013,10,22,02,49,7.00
2013,10,22,02,50,7.00
2013,10,22,02,51,7.00
2013,10,22,02,52,7.00
2013,10,22,02,53,7.00
2013,10,22,02,54,6.90
2013,10,22,02,55,6.90
2013,10,22,02,56,6.90
2013,10,22,02,57,6.90
2013,10,22,02,58,6.90
2013,10,22,02,59,6.90
2013,10,22,03,00,6.90
2013,10,22,03,01,6.90
2013,10,22,03,02,6.90
2013,10,22,03,03,6.90
2013,10,22,03,04,6.80
2013,10,22,03,05,6.80
2013,10,22,03,06,6.80
2013,10,22,03,07,6.80
2013,10,22,03,08,6.80
2013,10,22,03,09,6.80
2013,10,22,03,10,6.80
2013,10,22,03,11,6.80
2013,10,22,03,12,6.80
2013,10,22,03,13,6.80
2013,10,22,03,14,6.80
2013,10,22,03,15,6.80
2013,10,22,03,16,6.80
2013,10,22,03,17,6.80
2013,10,22,03,18,6.80
2013,10,22,03,19,6.80
2013,10,22,03,20,6.80
2013,10,22,03,21,6.80
2013,10,22,03,22,6.80
2013,10,22,03,23,6.80
2013,10,22,03,24,6.80
2013,10,22,03,25,6.80
2013,10,22,03,26,6.80
2013,10,22,03,27,6.80
2013,10,22,03,28,6.80
2013,10,22,03,29,6.80
2013,10,22,03,30,6.80
2013,10,22,03,31,6.80
2013,10,22,03,32,6.80
2013,10,22,03,33,6.80
2013,10,22,03,34,6.80
2013,10,22,03,35,6.80
2013,10,22,03,36,6.80
2013,10,22,03,37,6.80
2013,10,22,03,38,6.80
2013,10,22,03,39,6.80
2013,10,22,03,40,6.80
2013,10,22,03,41,6.80
2013,10,22,03,42,6.80
2013,10,22,03,43,6.80
2013,10,22,03,44,6.80
2013,10,22,03,45,6.80
2013,10,22,03,46,6.80
2013,10,22,03,47,6.80
2013,10,22,03,48,6.80
2013,10,22,03,49,6.80
2013,10,22,03,50,6.80
2013,10,22,03,51,6.80
2013,10,22,03,52,6.80
2013,10,22,03,53,6.80
2013,10,22,03,54,6.80
2013,10,22,03,55,6.80
2013,10,22,03,56,6.80
2013,10,22,03,57,6.80
2013,10,22,03,58,6.80
2013,10,22,03,59,6.80
2013,10,22,04,00,6.80
2013,10,22,04,01,6.80
2013,10,22,04,02,6.80
2013,10,22,04,03,6.80
2013,10,22,04,04,6.80
2013,10,22,04,05,6.80
2013,10,22,04,06,6.80
2013,10,22,04,07,6.70
2013,10,22,04,08,6.70
2013,10,22,04,09,6.70
2013,10,22,04,10,6.70
2013,10,22,04,11,6.70
2013,10,22,04,12,6.70
2013,10,22,04,13,6.70
2013,10,22,04,14,6.70
2013,10,22,04,15,6.70
2013,10,22,04,16,6.70
2013,10,22,04,17,6.70
2013,10,22,04,18,6.70
2013,10,22,04,19,6.70
2013,10,22,04,20,6.80
2013,10,22,04,21,6.80
2013,10,22,04,22,6.80
2013,10,22,04,23,6.80
2013,10,22,04,24,6.80
2013,10,22,04,25,6.80
2013,10,22,04,26,6.80
2013,10,22,04,27,6.80
2013,10,22,04,28,6.80
2013,10,22,04,29,6.80
2013,10,22,04,30,6.80
2013,10,22,04,31,6.80
2013,10,22,04,32,6.80
2013,10,22,04,33,6.80
2013,10,22,04,34,6.80
2013,10,22,04,35,6.80
2013,10,22,04,36,6.70
2013,10,22,04,37,6.70
2013,10,22,04,38,6.70
2013,10,22,04,39,6.70
2013,10,22,04,40,6.70
2013,10,22,04,41,6.70
2013,10,22,04,42,6.70
2013,10,22,04,43,6.70
2013,10,22,04,44,6.70
2013,10,22,04,45,6.70
2013,10,22,04,46,6.70
2013,10,22,04,47,6.70
2013,10,22,04,48,6.70
2013,10,22,04,49,6.70
2013,10,22,04,50,6.70
2013,10,22,04,51,6.70
2013,10,22,04,52,6.70
2013,10,22,04,53,6.70
2013,10,22,04,54,6.70
2013,10,22,04,55,6.70
2013,10,22,04,56,6.60
2013,10,22,04,57,6.60
2013,10,22,04,58,6.60
2013,10,22,04,59,6.60
2013,10,22,05,00,6.60
2013,10,22,05,01,6.60
2013,10,22,05,02,6.70
2013,10,22,05,03,6.70
2013,10,22,05,04,6.70
2013,10,22,05,05,6.70
2013,10,22,05,06,6.70
2013,10,22,05,07,6.70
2013,10,22,05,08,6.70
2013,10,22,05,09,6.70
2013,10,22,05,10,6.70
2013,10,22,05,11,6.70
2013,10,22,05,12,6.70
2013,10,22,05,13,6.70
2013,10,22,05,14,6.70
2013,10,22,05,15,6.70
2013,10,22,05,16,6.70
2013,10,22,05,17,6.80
2013,10,22,05,18,6.80
2013,10,22,05,19,6.80
2013,10,22,05,20,6.80
2013,10,22,05,21,6.80
2013,10,22,05,22,6.80
2013,10,22,05,23,6.80
2013,10,22,05,24,6.80
2013,10,22,05,25,6.80
2013,10,22,05,26,6.80
2013,10,22,05,27,6.80
2013,10,22,05,28,6.80
2013,10,22,05,29,6.80
2013,10,22,05,30,6.80
2013,10,22,05,31,6.80
2013,10,22,05,32,6.80
2013,10,22,05,33,6.80
2013,10,22,05,34,6.80
2013,10,22,05,35,6.80
2013,10,22,05,36,6.80
2013,10,22,05,37,6.80
2013,10,22,05,38,6.80
2013,10,22,05,39,6.80
2013,10,22,05,40,6.90
2013,10,22,05,41,6.90
2013,10,22,05,42,6.90
2013,10,22,05,43,6.90
2013,10,22,05,44,6.90
2013,10,22,05,45,6.90
2013,10,22,05,46,6.90
2013,10,22,05,47,6.90
2013,10,22,05,48,6.90
2013,10,22,05,49,6.90
2013,10,22,05,50,6.90
2013,10,22,05,51,6.90
2013,10,22,05,52,6.90
2013,10,22,05,53,6.90
2013,10,22,05,54,6.90
2013,10,22,05,55,6.90
2013,10,22,05,56,6.90
2013,10,22,05,57,6.90
2013,10,22,05,58,6.90
2013,10,22,05,59,6.90
2013,10,22,06,00,6.90
2013,10,22,06,01,6.90
2013,10,22,06,02,6.90
2013,10,22,06,03,6.90
2013,10,22,06,04,6.90
2013,10,22,06,05,6.90
2013,10,22,06,06,6.90
2013,10,22,06,07,6.90
2013,10,22,06,08,6.90
2013,10,22,06,09,6.90
2013,10,22,06,10,6.90
2013,10,22,06,11,6.90
2013,10,22,06,12,6.90
2013,10,22,06,13,6.90
2013,10,22,06,14,6.90
2013,10,22,06,15,6.90
2013,10,22,06,16,6.90
2013,10,22,06,17,6.90
2013,10,22,06,18,6.90
2013,10,22,06,19,6.90
